When you browse on this site, cookies collect data to enhance your experience and personalize the content and advertising you see.
Visit our Privacy Policy to learn more. By continuing to use the site, you agree to this use of cookies and data.
  • en France
  • Liste des pays
  • À 7 jours
  • Température de l'eau
  • Carte satellitaire
  • Carte météo
  • Widgets météo
  • user-avatar
    Se connecter

    Météo par heure à Urchiab

    Ce jour, 14 Décembre, Vendredi

    Heure Température Précipitation Vent Pression Humidité
    00:00 -3°C° 0 mm 2 m/s 657 mmHg 55%
    01:00 -3°C° 0 mm 2 m/s 658 mmHg 56%
    02:00 -4°C° 0 mm 2 m/s 658 mmHg 56%
    03:00 -4°C° 0 mm 2 m/s 658 mmHg 56%
    04:00 -4°C° 0 mm 2 m/s 658 mmHg 57%
    05:00 -4°C° 0 mm 2 m/s 658 mmHg 57%
    06:00 -2°C° 0 mm 1 m/s 658 mmHg 58%
    07:00 -2°C° 0 mm 1 m/s 658 mmHg 56%
    08:00 -1°C° 0 mm 1 m/s 659 mmHg 54%
    09:00 0°C° 0 mm 1 m/s 659 mmHg 53%
    10:00 0°C° 0 mm 1 m/s 659 mmHg 52%
    11:00 -1°C° 0 mm 2 m/s 659 mmHg 52%
    12:00 +1°C° 0 mm 2 m/s 659 mmHg 52%
    13:00 +1°C° 0 mm 2 m/s 659 mmHg 55%
    14:00 -1°C° 0 mm 2 m/s 659 mmHg 59%
    15:00 -1°C° 0 mm 2 m/s 659 mmHg 63%
    16:00 0°C° 0 mm 1 m/s 659 mmHg 68%
    17:00 -1°C° 0 mm 1 m/s 659 mmHg 72%
    18:00 -1°C° 0 mm 1 m/s 659 mmHg 77%
    19:00 -1°C° 0 mm 1 m/s 659 mmHg 76%
    20:00 -2°C° 0 mm 1 m/s 659 mmHg 76%
    21:00 -2°C° 0 mm 1 m/s 659 mmHg 75%
    22:00 -2°C° 0 mm 1 m/s 659 mmHg 74%
    23:00 -2°C° 0 mm 1 m/s 659 mmHg 72%

    Demain, 15 Décembre, Samedi

    Heure Température Précipitation Vent Pression Humidité
    00:00 -2°C° 0 mm 1 m/s 659 mmHg 70%
    01:00 -2°C° 0 mm 1 m/s 659 mmHg 68%
    02:00 -2°C° 0 mm 1 m/s 659 mmHg 66%
    03:00 -2°C° 0 mm 1 m/s 659 mmHg 64%
    04:00 -2°C° 0 mm 1 m/s 660 mmHg 63%
    05:00 -2°C° 0 mm 1 m/s 660 mmHg 62%
    06:00 -2°C° 0 mm 1 m/s 660 mmHg 61%
    07:00 -2°C° 0 mm 1 m/s 660 mmHg 57%
    08:00 -1°C° 0 mm 1 m/s 660 mmHg 54%
    09:00 0°C° 0 mm 1 m/s 661 mmHg 50%
    10:00 +1°C° 0 mm 1 m/s 661 mmHg 48%
    11:00 +2°C° 0 mm 1 m/s 661 mmHg 47%
    12:00 +2°C° 0 mm 2 m/s 661 mmHg 45%
    13:00 +2°C° 0 mm 2 m/s 661 mmHg 48%
    14:00 +2°C° 0 mm 2 m/s 660 mmHg 51%
    15:00 +2°C° 0 mm 2 m/s 660 mmHg 54%
    16:00 +2°C° 0 mm 1 m/s 660 mmHg 59%
    17:00 +1°C° 0 mm 1 m/s 660 mmHg 65%
    18:00 0°C° 0 mm 1 m/s 660 mmHg 70%
    19:00 0°C° 0 mm 1 m/s 660 mmHg 69%
    20:00 0°C° 0 mm 1 m/s 659 mmHg 69%
    21:00 0°C° 0 mm 1 m/s 659 mmHg 68%
    22:00 0°C° 0 mm 1 m/s 659 mmHg 69%
    23:00 0°C° 0 mm 1 m/s 659 mmHg 69%

    Après-demain, 16 Décembre, Dimanche

    Heure Température Précipitation Vent Pression Humidité
    00:00 0°C° 0 mm 1 m/s 659 mmHg 69%
    01:00 0°C° 0 mm 1 m/s 659 mmHg 71%
    02:00 0°C° 0 mm 1 m/s 659 mmHg 72%
    03:00 0°C° 0 mm 1 m/s 659 mmHg 73%
    04:00 -3°C° 0 mm 2 m/s 659 mmHg 75%
    05:00 -3°C° 0 mm 2 m/s 659 mmHg 77%
    06:00 -3°C° 0 mm 2 m/s 659 mmHg 79%
    07:00 -3°C° 0 mm 2 m/s 659 mmHg 77%
    08:00 0°C° 0 mm 1 m/s 660 mmHg 75%
    09:00 0°C° 0 mm 1 m/s 660 mmHg 73%
    10:00 +1°C° 0 mm 1 m/s 660 mmHg 70%
    11:00 +1°C° 0 mm 2 m/s 660 mmHg 68%
    12:00 +1°C° 0 mm 2 m/s 661 mmHg 66%
    13:00 +1°C° 0 mm 2 m/s 661 mmHg 69%
    14:00 +1°C° 0 mm 2 m/s 660 mmHg 72%
    15:00 +1°C° 0 mm 2 m/s 660 mmHg 76%
    16:00 +1°C° 0 mm 1 m/s 661 mmHg 80%
    17:00 0°C° 0 mm 1 m/s 661 mmHg 84%
    18:00 0°C° 0 mm 1 m/s 661 mmHg 88%
    19:00 0°C° 0 mm 1 m/s 661 mmHg 88%
    20:00 0°C° 0 mm 1 m/s 661 mmHg 87%
    21:00 -2°C° 0 mm 2 m/s 661 mmHg 87%
    22:00 -3°C° 0 mm 2 m/s 661 mmHg 87%
    23:00 -3°C° 0 mm 2 m/s 661 mmHg 87%

    17 Décembre, Lundi

    Heure Température Précipitation Vent Pression Humidité
    00:00 -3°C° 0 mm 2 m/s 661 mmHg 87%
    01:00 -3°C° 0 mm 2 m/s 661 mmHg 87%
    02:00 -3°C° 0 mm 2 m/s 661 mmHg 87%
    03:00 -3°C° 0 mm 2 m/s 661 mmHg 87%
    04:00 -3°C° 0 mm 2 m/s 660 mmHg 86%
    05:00 -3°C° 0 mm 2 m/s 660 mmHg 86%
    06:00 -3°C° 0 mm 2 m/s 660 mmHg 86%
    07:00 -3°C° 0 mm 2 m/s 660 mmHg 85%
    08:00 -2°C° 0 mm 2 m/s 660 mmHg 83%
    09:00 -2°C° 0 mm 2 m/s 661 mmHg 82%
    10:00 -1°C° 0 mm 2 m/s 660 mmHg 80%
    11:00 +1°C° 0 mm 2 m/s 660 mmHg 79%
    12:00 0°C° 0 mm 3 m/s 660 mmHg 77%
    13:00 0°C° 0 mm 3 m/s 660 mmHg 79%
    14:00 0°C° 0 mm 3 m/s 660 mmHg 81%
    15:00 0°C° 0 mm 3 m/s 659 mmHg 83%
    16:00 -1°C° 0 mm 3 m/s 659 mmHg 85%
    17:00 -1°C° 0 mm 3 m/s 659 mmHg 87%
    18:00 -2°C° 0 mm 2 m/s 659 mmHg 89%
    19:00 -2°C° 0.1 mm 3 m/s 659 mmHg 88%
    20:00 -2°C° 0.1 mm 3 m/s 659 mmHg 88%
    21:00 -2°C° 0.1 mm 3 m/s 659 mmHg 87%
    22:00 -2°C° 0.1 mm 3 m/s 659 mmHg 87%
    23:00 -2°C° 0.1 mm 3 m/s 659 mmHg 86%

    18 Décembre, Mardi

    Heure Température Précipitation Vent Pression Humidité
    00:00 -2°C° 0.1 mm 3 m/s 659 mmHg 86%
    01:00 -2°C° 0.1 mm 3 m/s 659 mmHg 86%
    02:00 -2°C° 0.1 mm 3 m/s 659 mmHg 86%
    03:00 -2°C° 0.1 mm 2 m/s 659 mmHg 85%
    04:00 -2°C° 0.1 mm 2 m/s 659 mmHg 86%
    05:00 -2°C° 0.1 mm 2 m/s 659 mmHg 86%
    06:00 -2°C° 0.1 mm 2 m/s 658 mmHg 87%
    07:00 -2°C° 0.1 mm 2 m/s 659 mmHg 86%
    08:00 -2°C° 0.1 mm 2 m/s 659 mmHg 86%
    09:00 -2°C° 0.1 mm 2 m/s 659 mmHg 86%
    10:00 -1°C° 0.2 mm 2 m/s 659 mmHg 85%
    11:00 -1°C° 0.2 mm 2 m/s 659 mmHg 83%
    12:00 -1°C° 0.2 mm 2 m/s 658 mmHg 82%
    13:00 -1°C° 0.2 mm 2 m/s 658 mmHg 84%
    14:00 -1°C° 0.2 mm 2 m/s 658 mmHg 85%
    15:00 -1°C° 0.2 mm 2 m/s 658 mmHg 87%
    16:00 -2°C° 0.3 mm 2 m/s 659 mmHg 89%
    17:00 0°C° 0.3 mm 1 m/s 659 mmHg 90%
    18:00 0°C° 0.3 mm 1 m/s 659 mmHg 92%
    19:00 -1°C° 0.2 mm 1 m/s 659 mmHg 92%
    20:00 -1°C° 0.2 mm 1 m/s 659 mmHg 91%
    21:00 -1°C° 0.2 mm 1 m/s 659 mmHg 91%
    22:00 -1°C° 0.1 mm 1 m/s 659 mmHg 91%
    23:00 -1°C° 0.1 mm 1 m/s 659 mmHg 90%

    19 Décembre, Mercredi

    Heure Température Précipitation Vent Pression Humidité
    00:00 -1°C° 0.1 mm 1 m/s 659 mmHg 90%
    01:00 -1°C° 0 mm 1 m/s 659 mmHg 90%
    02:00 -1°C° 0 mm 1 m/s 659 mmHg 90%
    03:00 -1°C° 0 mm 1 m/s 659 mmHg 90%
    04:00 -1°C° 0 mm 1 m/s 659 mmHg 90%
    05:00 -2°C° 0 mm 1 m/s 659 mmHg 90%
    06:00 -2°C° 0 mm 1 m/s 659 mmHg 90%
    07:00 -1°C° 0.1 mm 1 m/s 660 mmHg 88%
    08:00 -1°C° 0.1 mm 1 m/s 660 mmHg 85%
    09:00 -1°C° 0.1 mm 1 m/s 660 mmHg 83%
    10:00 0°C° 0 mm 1 m/s 660 mmHg 81%
    11:00 +1°C° 0 mm 1 m/s 660 mmHg 78%
    12:00 +1°C° 0 mm 1 m/s 660 mmHg 75%
    13:00 +1°C° 0 mm 1 m/s 660 mmHg 77%
    14:00 +1°C° 0 mm 1 m/s 660 mmHg 79%
    15:00 -1°C° 0 mm 2 m/s 660 mmHg 80%
    16:00 0°C° 0 mm 1 m/s 660 mmHg 83%
    17:00 0°C° 0 mm 1 m/s 660 mmHg 86%
    18:00 -1°C° 0 mm 1 m/s 661 mmHg 89%
    19:00 -1°C° 0 mm 1 m/s 661 mmHg 88%
    20:00 -1°C° 0 mm 1 m/s 661 mmHg 87%
    21:00 -1°C° 0 mm 1 m/s 661 mmHg 86%
    22:00 -1°C° 0 mm 1 m/s 661 mmHg 85%
    23:00 -1°C° 0 mm 1 m/s 661 mmHg 85%
    Voir plus